Regional Weather Roundup
Issued by NWS

Home | Current Version | Previous Version | Graphics & Text | Print | Product List | Glossary Off
Versions: 1 2 3 4 5 6 7 8 9 10 11 12 13 14 15 16 17 18 19 20 21 22 23 24 25 26 27 28 29 30 31 32 33 34 35 36 37 38 39 40 41 42 43 44 45 46 47 48 49 50

000
ASUS43 KTOP 261708
RWRKS

WEATHER ROUNDUP FOR KANSAS
NATIONAL WEATHER SERVICE GOODLAND KS
1200 PM CDT SUN APR 26 2015

NOTE:  "FAIR" INDICATES FEW OR NO CLOUDS BELOW 12,000 FEET WITH NO
SIGNIFICANT WEATHER AND/OR OBSTRUCTIONS TO VISIBILITY.

KSZ001>006-013>018-027>032-041>047-261800-
NORTHWEST KANSAS

CITY           SKY/WX    TMP DP  RH WIND       PRES   REMARKS
GOODLAND       LGT RAIN  43  43 100 E18       29.92R FOG
HAYS           CLOUDY    48  39  71 E17       29.94R
HILL CITY      CLOUDY    48  44  86 E15       29.96R
RUSSELL        LGT RAIN  48  47  96 NE16      29.93R FOG
$$

KSZ061>065-074>080-084>089-261800-
SOUTHWEST KANSAS

CITY           SKY/WX    TMP DP  RH WIND       PRES   REMARKS
DODGE CITY     CLOUDY    47  45  93 E20       29.88S FOG
ELKHART          N/A     50  43  77 E16         N/A
GARDEN CITY    CLOUDY    45  45 100 E17G26    29.86S FOG
GREAT BEND     CLOUDY    48  45  87 E15       29.92S
LIBERAL        CLOUDY    50  45  81 E15       29.85S
$$

KSZ066>073-081>083-090>101-261800-
SOUTHEAST KANSAS

CITY           SKY/WX    TMP DP  RH WIND       PRES   REMARKS
CHANUTE        CLOUDY    56  48  74 NE13      29.91R
COFFEYVILLE    CLOUDY    56  50  80 E13       29.89R
HUTCHINSON     CLOUDY    52  48  86 E14       29.91R FOG
MEDICINE LODGE   N/A     52  48  86 E10       29.87R
NEWTON         CLOUDY    50  43  76 E12G18    29.93R
PARSONS        CLOUDY    57  50  77 NE8       29.91R
WICHITA INTL   CLOUDY    54  48  80 E18       29.89S
WICHITA JABRA  CLOUDY    51  47  86 E16       29.90S
WICHITA MCCONL CLOUDY    53  47  81 E14       29.89S
WINFIELD       CLOUDY    55  49  80 NE16      29.88S
$$

KSZ007>012-019>026-033>040-048>060-102>105-261800-
NORTHEAST KANSAS

CITY           SKY/WX    TMP DP  RH WIND       PRES   REMARKS
CONCORDIA      CLOUDY    50  44  80 E15G23    29.97S
EMPORIA        CLOUDY    51  46  83 E15       29.94R
LAWRENCE       CLOUDY    52  43  71 E12G22    29.99R
MANHATTAN      CLOUDY    52  46  80 NE13      29.98R
MARYSVILLE     CLOUDY    46  43  87 E13       30.02R
OLATHE IND     CLOUDY    51  42  71 E13G21    29.98R
OLATHE EXE     CLOUDY    51  43  74 NE14      29.97R
SALINA         CLOUDY    51  46  83 E9G24     29.95R
TOPEKA BILLARD CLOUDY    53  43  68 NE14      29.99R
TOPEKA FORBES  CLOUDY    52  42  69 E14       29.97R
$$



USA.gov is the U.S. government's official web portal to all federal, state and local government web resources and services.